owner,sensor,date,latitude,longitude,vertical_datum,mass_concentration_of_oxygen_in_sea_water,qcFlag 
SCCF RECON,ioos:station:SCCF:11:1,2012-09-01T00:00:00Z,26.4679,-82.0631,1.622,7.6,1111122 
SCCF RECON,ioos:station:SCCF:11:1,2012-09-01T01:00:00Z,26.4679,-82.0631,1.63,7.46,1111122 
SCCF RECON,ioos:station:SCCF:11:1,2012-09-01T02:00:00Z,26.4679,-82.0631,1.76,7.34,1111122 
SCCF RECON,ioos:station:SCCF:11:1,2012-09-01T03:00:00Z,26.4679,-82.0631,1.93,7.59,1111122 
SCCF RECON,ioos:station:SCCF:11:1,2012-09-01T04:00:00Z,26.4679,-82.0631,2.06,7.33,1111122 
SCCF RECON,ioos:station:SCCF:11:1,2012-09-01T05:00:00Z,26.4679,-82.0631,2.151,6.91,1111122 
SCCF RECON,ioos:station:SCCF:11:1,2012-09-01T06:00:00Z,26.4679,-82.0631,2.24,6.62,1111122 
SCCF RECON,ioos:station:SCCF:11:1,2012-09-01T07:00:00Z,26.4679,-82.0631,2.218,6.52,1111122 
SCCF RECON,ioos:station:SCCF:11:1,2012-09-01T08:00:00Z,26.4679,-82.0631,2.09,6.59,1111122 
SCCF RECON,ioos:station:SCCF:11:1,2012-09-01T09:00:00Z,26.4679,-82.0631,1.943,6.01,1111122 
SCCF RECON,ioos:station:SCCF:11:1,2012-09-01T10:00:00Z,26.4679,-82.0631,1.84,5.68,1111122 
SCCF RECON,ioos:station:SCCF:11:1,2012-09-01T11:00:00Z,26.4679,-82.0631,1.764,5.28,1111122 
SCCF RECON,ioos:station:SCCF:11:1,2012-09-01T12:00:00Z,26.4679,-82.0631,1.721,5.04,1111122 
SCCF RECON,ioos:station:SCCF:11:1,2012-09-01T13:00:00Z,26.4679,-82.0631,1.75,5.22,1111122 
SCCF RECON,ioos:station:SCCF:11:1,2012-09-01T14:00:00Z,26.4679,-82.0631,1.87,5.2,1111122 
SCCF RECON,ioos:station:SCCF:11:1,2012-09-01T15:00:00Z,26.4679,-82.0631,2.056,6.77,1111122 
SCCF RECON,ioos:station:SCCF:11:1,2012-09-01T16:00:00Z,26.4679,-82.0631,2.192,6.99,1111122 
SCCF RECON,ioos:station:SCCF:11:1,2012-09-01T17:00:00Z,26.4679,-82.0631,2.28,6.85,1111122 
SCCF RECON,ioos:station:SCCF:11:1,2012-09-01T18:00:00Z,26.4679,-82.0631,2.346,5.72,1111122 
SCCF RECON,ioos:station:SCCF:11:1,2012-09-01T19:00:00Z,26.4679,-82.0631,2.336,6.02,1111122 
SCCF RECON,ioos:station:SCCF:11:1,2012-09-01T20:00:00Z,26.4679,-82.0631,2.236,6.58,1111122 
SCCF RECON,ioos:station:SCCF:11:1,2012-09-01T21:00:00Z,26.4679,-82.0631,2.078,8.3,1111122 
SCCF RECON,ioos:station:SCCF:11:1,2012-09-01T22:00:00Z,26.4679,-82.0631,1.94,8.02,1111122 
SCCF RECON,ioos:station:SCCF:11:1,2012-09-01T23:00:00Z,26.4679,-82.0631,1.833,7.77,1111122 
SCCF RECON,ioos:station:SCCF:11:1,2012-09-02T00:00:00Z,26.4679,-82.0631,1.75,7.47,1111122 
SCCF RECON,ioos:station:SCCF:11:1,2012-09-02T01:00:00Z,26.4679,-82.0631,1.71,6.96,1111122 
SCCF RECON,ioos:station:SCCF:11:1,2012-09-02T02:00:00Z,26.4679,-82.0631,1.78,6.7,1111122 
SCCF RECON,ioos:station:SCCF:11:1,2012-09-02T03:00:00Z,26.4679,-82.0631,1.926,6.76,1111122 
SCCF RECON,ioos:station:SCCF:11:1,2012-09-02T04:00:00Z,26.4679,-82.0631,2.05,6.89,1111122 
SCCF RECON,ioos:station:SCCF:11:1,2012-09-02T05:00:00Z,26.4679,-82.0631,2.14,6.71,1111122 
SCCF RECON,ioos:station:SCCF:11:1,2012-09-02T06:00:00Z,26.4679,-82.0631,2.21,6.59,1111122 
SCCF RECON,ioos:station:SCCF:11:1,2012-09-02T07:00:00Z,26.4679,-82.0631,2.21,6.19,1111122 
SCCF RECON,ioos:station:SCCF:11:1,2012-09-02T08:00:00Z,26.4679,-82.0631,2.16,5.98,1111122 
SCCF RECON,ioos:station:SCCF:11:1,2012-09-02T09:00:00Z,26.4679,-82.0631,2.074,6.23,1111122 
SCCF RECON,ioos:station:SCCF:11:1,2012-09-02T10:00:00Z,26.4679,-82.0631,1.938,5.56,1111122 
SCCF RECON,ioos:station:SCCF:11:1,2012-09-02T11:00:00Z,26.4679,-82.0631,1.81,5.29,1111122 
SCCF RECON,ioos:station:SCCF:11:1,2012-09-02T12:00:00Z,26.4679,-82.0631,1.716,5.01,1111122 
SCCF RECON,ioos:station:SCCF:11:1,2012-09-02T13:00:00Z,26.4679,-82.0631,1.665,5.13,1111122 
SCCF RECON,ioos:station:SCCF:11:1,2012-09-02T14:00:00Z,26.4679,-82.0631,1.729,5.09,1111122 
SCCF RECON,ioos:station:SCCF:11:1,2012-09-02T15:00:00Z,26.4679,-82.0631,1.906,6.22,1111122 
SCCF RECON,ioos:station:SCCF:11:1,2012-09-02T16:00:00Z,26.4679,-82.0631,2.088,7.35,1111122 
SCCF RECON,ioos:station:SCCF:11:1,2012-09-02T17:00:00Z,26.4679,-82.0631,2.201,7.27,1111122 
SCCF RECON,ioos:station:SCCF:11:1,2012-09-02T18:00:00Z,26.4679,-82.0631,2.286,7.42,1111122 
SCCF RECON,ioos:station:SCCF:11:1,2012-09-02T19:00:00Z,26.4679,-82.0631,2.32,6.75,1111122 
SCCF RECON,ioos:station:SCCF:11:1,2012-09-02T20:00:00Z,26.4679,-82.0631,2.289,6.34,1111122 
SCCF RECON,ioos:station:SCCF:11:1,2012-09-02T21:00:00Z,26.4679,-82.0631,2.163,7.99,1111122 
SCCF RECON,ioos:station:SCCF:11:1,2012-09-02T22:00:00Z,26.4679,-82.0631,2.02,8.36,1111122 
SCCF RECON,ioos:station:SCCF:11:1,2012-09-02T23:00:00Z,26.4679,-82.0631,1.911,8.65,1111122 
SCCF RECON,ioos:station:SCCF:11:1,2012-09-03T00:00:00Z,26.4679,-82.0631,1.83,7.79,1111122 
SCCF RECON,ioos:station:SCCF:11:1,2012-09-03T01:00:00Z,26.4679,-82.0631,1.768,7.69,1111122 
SCCF RECON,ioos:station:SCCF:11:1,2012-09-03T02:00:00Z,26.4679,-82.0631,1.796,7.02,1111122 
SCCF RECON,ioos:station:SCCF:11:1,2012-09-03T03:00:00Z,26.4679,-82.0631,1.9,6.99,1111122 
SCCF RECON,ioos:station:SCCF:11:1,2012-09-03T04:00:00Z,26.4679,-82.0631,2.051,6.92,1111122 
SCCF RECON,ioos:station:SCCF:11:1,2012-09-03T05:00:00Z,26.4679,-82.0631,2.16,7.4,1111122 
SCCF RECON,ioos:station:SCCF:11:1,2012-09-03T06:00:00Z,26.4679,-82.0631,2.23,6.62,1111122 
SCCF RECON,ioos:station:SCCF:11:1,2012-09-03T07:00:00Z,26.4679,-82.0631,2.27,6.61,1111122 
SCCF RECON,ioos:station:SCCF:11:1,2012-09-03T08:00:00Z,26.4679,-82.0631,2.26,6.05,1111122 
SCCF RECON,ioos:station:SCCF:11:1,2012-09-03T09:00:00Z,26.4679,-82.0631,2.17,6.58,1111122 
SCCF RECON,ioos:station:SCCF:11:1,2012-09-03T10:00:00Z,26.4679,-82.0631,2.06,6.04,1111122 
SCCF RECON,ioos:station:SCCF:11:1,2012-09-03T11:00:00Z,26.4679,-82.0631,1.948,5.76,1111122 
SCCF RECON,ioos:station:SCCF:11:1,2012-09-03T12:00:00Z,26.4679,-82.0631,1.839,5.37,1111122 
SCCF RECON,ioos:station:SCCF:11:1,2012-09-03T13:00:00Z,26.4679,-82.0631,1.751,5.35,1111122 
SCCF RECON,ioos:station:SCCF:11:1,2012-09-03T14:00:00Z,26.4679,-82.0631,1.725,5.73,1111122 
SCCF RECON,ioos:station:SCCF:11:1,2012-09-03T15:00:00Z,26.4679,-82.0631,1.821,5.21,1111122 
SCCF RECON,ioos:station:SCCF:11:1,2012-09-03T16:00:00Z,26.4679,-82.0631,2.01,6.56,1111122 
SCCF RECON,ioos:station:SCCF:11:1,2012-09-03T17:00:00Z,26.4679,-82.0631,2.157,7.65,1111122 
SCCF RECON,ioos:station:SCCF:11:1,2012-09-03T18:00:00Z,26.4679,-82.0631,2.234,7.11,1111122 
SCCF RECON,ioos:station:SCCF:11:1,2012-09-03T19:00:00Z,26.4679,-82.0631,2.305,6.67,1111122 
SCCF RECON,ioos:station:SCCF:11:1,2012-09-03T20:00:00Z,26.4679,-82.0631,2.31,5.75,1111122 
SCCF RECON,ioos:station:SCCF:11:1,2012-09-03T21:00:00Z,26.4679,-82.0631,2.22,8.54,1111122 
SCCF RECON,ioos:station:SCCF:11:1,2012-09-03T22:00:00Z,26.4679,-82.0631,2.091,8.26,1111122 
SCCF RECON,ioos:station:SCCF:11:1,2012-09-03T23:00:00Z,26.4679,-82.0631,1.99,8.15,1111122 
SCCF RECON,ioos:station:SCCF:11:1,2012-09-04T00:00:00Z,26.4679,-82.0631,1.9,7.53,1111122 
SCCF RECON,ioos:station:SCCF:11:1,2012-09-04T01:00:00Z,26.4679,-82.0631,1.84,7.66,1111122 
SCCF RECON,ioos:station:SCCF:11:1,2012-09-04T02:00:00Z,26.4679,-82.0631,1.84,7.4,1111122 
SCCF RECON,ioos:station:SCCF:11:1,2012-09-04T03:00:00Z,26.4679,-82.0631,1.89,6.78,1111122 
SCCF RECON,ioos:station:SCCF:11:1,2012-09-04T04:00:00Z,26.4679,-82.0631,2.008,6.94,1111122 
SCCF RECON,ioos:station:SCCF:11:1,2012-09-04T05:00:00Z,26.4679,-82.0631,2.14,6.47,1111122 
SCCF RECON,ioos:station:SCCF:11:1,2012-09-04T06:00:00Z,26.4679,-82.0631,2.23,6.45,1111122 
SCCF RECON,ioos:station:SCCF:11:1,2012-09-04T07:00:00Z,26.4679,-82.0631,2.28,6.36,1111122 
SCCF RECON,ioos:station:SCCF:11:1,2012-09-04T08:00:00Z,26.4679,-82.0631,2.29,6.09,1111122 
SCCF RECON,ioos:station:SCCF:11:1,2012-09-04T09:00:00Z,26.4679,-82.0631,2.239,5.96,1111122 
SCCF RECON,ioos:station:SCCF:11:1,2012-09-04T10:00:00Z,26.4679,-82.0631,2.101,6.0,1111122 
SCCF RECON,ioos:station:SCCF:11:1,2012-09-04T11:00:00Z,26.4679,-82.0631,1.98,5.38,1111122 
SCCF RECON,ioos:station:SCCF:11:1,2012-09-04T12:00:00Z,26.4679,-82.0631,1.85,5.06,1111122 
SCCF RECON,ioos:station:SCCF:11:1,2012-09-04T13:00:00Z,26.4679,-82.0631,1.74,4.97,1111122 
SCCF RECON,ioos:station:SCCF:11:1,2012-09-04T14:00:00Z,26.4679,-82.0631,1.7,4.96,1111122 
SCCF RECON,ioos:station:SCCF:11:1,2012-09-04T15:00:00Z,26.4679,-82.0631,1.73,5.04,1111122 
SCCF RECON,ioos:station:SCCF:11:1,2012-09-04T16:00:00Z,26.4679,-82.0631,1.84,5.33,1111122 
SCCF RECON,ioos:station:SCCF:11:1,2012-09-04T17:00:00Z,26.4679,-82.0631,2.01,6.3,1111122 
SCCF RECON,ioos:station:SCCF:11:1,2012-09-04T18:00:00Z,26.4679,-82.0631,2.12,6.98,1111122 
SCCF RECON,ioos:station:SCCF:11:1,2012-09-04T19:00:00Z,26.4679,-82.0631,2.193,7.06,1111122 
SCCF RECON,ioos:station:SCCF:11:1,2012-09-04T20:00:00Z,26.4679,-82.0631,2.23,7.25,1111122 
SCCF RECON,ioos:station:SCCF:11:1,2012-09-04T21:00:00Z,26.4679,-82.0631,2.22,6.08,1111122 
SCCF RECON,ioos:station:SCCF:11:1,2012-09-04T22:00:00Z,26.4679,-82.0631,2.16,7.16,1111122 
SCCF RECON,ioos:station:SCCF:11:1,2012-09-04T23:00:00Z,26.4679,-82.0631,2.07,7.71,1111122 
SCCF RECON,ioos:station:SCCF:11:1,2012-09-05T00:00:00Z,26.4679,-82.0631,2.01,7.56,1111122 
SCCF RECON,ioos:station:SCCF:11:1,2012-09-05T01:00:00Z,26.4679,-82.0631,1.96,7.41,1111122 
SCCF RECON,ioos:station:SCCF:11:1,2012-09-05T02:00:00Z,26.4679,-82.0631,1.931,7.05,1111122 
SCCF RECON,ioos:station:SCCF:11:1,2012-09-05T03:00:00Z,26.4679,-82.0631,1.95,6.99,1111122 
SCCF RECON,ioos:station:SCCF:11:1,2012-09-05T04:00:00Z,26.4679,-82.0631,2.011,6.67,1111122 
SCCF RECON,ioos:station:SCCF:11:1,2012-09-05T05:00:00Z,26.4679,-82.0631,2.101,6.59,1111122 
SCCF RECON,ioos:station:SCCF:11:1,2012-09-05T06:00:00Z,26.4679,-82.0631,2.21,5.91,1111122 
SCCF RECON,ioos:station:SCCF:11:1,2012-09-05T07:00:00Z,26.4679,-82.0631,2.29,6.44,1111122 
SCCF RECON,ioos:station:SCCF:11:1,2012-09-05T08:00:00Z,26.4679,-82.0631,2.33,6.35,1111122 
SCCF RECON,ioos:station:SCCF:11:1,2012-09-05T09:00:00Z,26.4679,-82.0631,2.29,5.97,1111122 
SCCF RECON,ioos:station:SCCF:11:1,2012-09-05T10:00:00Z,26.4679,-82.0631,2.201,5.78,1111122 
SCCF RECON,ioos:station:SCCF:11:1,2012-09-05T11:00:00Z,26.4679,-82.0631,2.09,5.55,1111122 
SCCF RECON,ioos:station:SCCF:11:1,2012-09-05T12:00:00Z,26.4679,-82.0631,1.981,5.22,1111122 
SCCF RECON,ioos:station:SCCF:11:1,2012-09-05T13:00:00Z,26.4679,-82.0631,1.845,4.96,1111122 
SCCF RECON,ioos:station:SCCF:11:1,2012-09-05T14:00:00Z,26.4679,-82.0631,1.76,4.78,1111122 
SCCF RECON,ioos:station:SCCF:11:1,2012-09-05T15:00:00Z,26.4679,-82.0631,1.71,5.2,1111122 
SCCF RECON,ioos:station:SCCF:11:1,2012-09-05T16:00:00Z,26.4679,-82.0631,1.76,5.36,1111122 
SCCF RECON,ioos:station:SCCF:11:1,2012-09-05T17:00:00Z,26.4679,-82.0631,1.89,5.7,1111122 
SCCF RECON,ioos:station:SCCF:11:1,2012-09-05T18:00:00Z,26.4679,-82.0631,2.01,6.91,1111122 
SCCF RECON,ioos:station:SCCF:11:1,2012-09-05T19:00:00Z,26.4679,-82.0631,2.08,6.64,1111122 
SCCF RECON,ioos:station:SCCF:11:1,2012-09-05T20:00:00Z,26.4679,-82.0631,2.13,6.79,1111122 
SCCF RECON,ioos:station:SCCF:11:1,2012-09-05T21:00:00Z,26.4679,-82.0631,2.159,6.88,1111122 
SCCF RECON,ioos:station:SCCF:11:1,2012-09-05T22:00:00Z,26.4679,-82.0631,2.158,5.82,1111122 
SCCF RECON,ioos:station:SCCF:11:1,2012-09-05T23:00:00Z,26.4679,-82.0631,2.13,5.09,1111122 
SCCF RECON,ioos:station:SCCF:11:1,2012-09-06T00:00:00Z,26.4679,-82.0631,2.06,7.1,1111122 
SCCF RECON,ioos:station:SCCF:11:1,2012-09-06T01:00:00Z,26.4679,-82.0631,2.01,7.08,1111122 
SCCF RECON,ioos:station:SCCF:11:1,2012-09-06T02:00:00Z,26.4679,-82.0631,1.951,6.82,1111122 
SCCF RECON,ioos:station:SCCF:11:1,2012-09-06T03:00:00Z,26.4679,-82.0631,1.957,6.2,1111122 
SCCF RECON,ioos:station:SCCF:11:1,2012-09-06T04:00:00Z,26.4679,-82.0631,2.031,5.94,1111122 
SCCF RECON,ioos:station:SCCF:11:1,2012-09-06T05:00:00Z,26.4679,-82.0631,2.02,6.11,1111122 
SCCF RECON,ioos:station:SCCF:11:1,2012-09-06T06:00:00Z,26.4679,-82.0631,2.13,5.94,1111122 
SCCF RECON,ioos:station:SCCF:11:1,2012-09-06T07:00:00Z,26.4679,-82.0631,2.219,6.05,1111122 
SCCF RECON,ioos:station:SCCF:11:1,2012-09-06T08:00:00Z,26.4679,-82.0631,2.26,5.85,1111122 
SCCF RECON,ioos:station:SCCF:11:1,2012-09-06T09:00:00Z,26.4679,-82.0631,2.29,5.18,1111122 
SCCF RECON,ioos:station:SCCF:11:1,2012-09-06T10:00:00Z,26.4679,-82.0631,2.279,5.21,1111122 
SCCF RECON,ioos:station:SCCF:11:1,2012-09-06T11:00:00Z,26.4679,-82.0631,2.17,5.25,1111122 
SCCF RECON,ioos:station:SCCF:11:1,2012-09-06T12:00:00Z,26.4679,-82.0631,2.07,5.06,1111122 
SCCF RECON,ioos:station:SCCF:11:1,2012-09-06T13:00:00Z,26.4679,-82.0631,1.965,5.03,1111122 
SCCF RECON,ioos:station:SCCF:11:1,2012-09-06T14:00:00Z,26.4679,-82.0631,1.87,4.85,1111122 
SCCF RECON,ioos:station:SCCF:11:1,2012-09-06T15:00:00Z,26.4679,-82.0631,1.783,5.23,1111122 
SCCF RECON,ioos:station:SCCF:11:1,2012-09-06T16:00:00Z,26.4679,-82.0631,1.747,5.66,1111122 
SCCF RECON,ioos:station:SCCF:11:1,2012-09-06T17:00:00Z,26.4679,-82.0631,1.79,6.04,1111122 
SCCF RECON,ioos:station:SCCF:11:1,2012-09-06T18:00:00Z,26.4679,-82.0631,1.883,6.64,1111122 
SCCF RECON,ioos:station:SCCF:11:1,2012-09-06T19:00:00Z,26.4679,-82.0631,1.981,6.24,1111122 
SCCF RECON,ioos:station:SCCF:11:1,2012-09-06T20:00:00Z,26.4679,-82.0631,2.06,7.24,1111122 
SCCF RECON,ioos:station:SCCF:11:1,2012-09-06T21:00:00Z,26.4679,-82.0631,2.1,7.37,1111122 
SCCF RECON,ioos:station:SCCF:11:1,2012-09-06T22:00:00Z,26.4679,-82.0631,2.103,7.01,1111122 
SCCF RECON,ioos:station:SCCF:11:1,2012-09-06T23:00:00Z,26.4679,-82.0631,2.09,6.59,1111122 
SCCF RECON,ioos:station:SCCF:11:1,2012-09-07T00:00:00Z,26.4679,-82.0631,2.07,5.88,1111122 
SCCF RECON,ioos:station:SCCF:11:1,2012-09-07T01:00:00Z,26.4679,-82.0631,2.03,5.94,1111122 
SCCF RECON,ioos:station:SCCF:11:1,2012-09-07T02:00:00Z,26.4679,-82.0631,1.98,6.43,1111122 
SCCF RECON,ioos:station:SCCF:11:1,2012-09-07T03:00:00Z,26.4679,-82.0631,1.97,6.65,1111122 
SCCF RECON,ioos:station:SCCF:11:1,2012-09-07T04:00:00Z,26.4679,-82.0631,1.97,6.48,1111122 
SCCF RECON,ioos:station:SCCF:11:1,2012-09-07T05:00:00Z,26.4679,-82.0631,2.03,6.12,1111122 
SCCF RECON,ioos:station:SCCF:11:1,2012-09-07T06:00:00Z,26.4679,-82.0631,2.089,5.43,1111122 
SCCF RECON,ioos:station:SCCF:11:1,2012-09-07T07:00:00Z,26.4679,-82.0631,2.14,4.8,1111122 
SCCF RECON,ioos:station:SCCF:11:1,2012-09-07T08:00:00Z,26.4679,-82.0631,2.2,4.74,1111122 
SCCF RECON,ioos:station:SCCF:11:1,2012-09-07T09:00:00Z,26.4679,-82.0631,2.259,4.7,1111122 
SCCF RECON,ioos:station:SCCF:11:1,2012-09-07T10:00:00Z,26.4679,-82.0631,2.27,4.61,1111122 
SCCF RECON,ioos:station:SCCF:11:1,2012-09-07T11:00:00Z,26.4679,-82.0631,2.24,5.02,1111122 
SCCF RECON,ioos:station:SCCF:11:1,2012-09-07T12:00:00Z,26.4679,-82.0631,2.17,4.83,1111122 
SCCF RECON,ioos:station:SCCF:11:1,2012-09-07T13:00:00Z,26.4679,-82.0631,2.04,5.21,1111122 
SCCF RECON,ioos:station:SCCF:11:1,2012-09-07T14:00:00Z,26.4679,-82.0631,1.93,5.13,1111122 
SCCF RECON,ioos:station:SCCF:11:1,2012-09-07T15:00:00Z,26.4679,-82.0631,1.84,5.21,1111122 
SCCF RECON,ioos:station:SCCF:11:1,2012-09-07T16:00:00Z,26.4679,-82.0631,1.796,5.24,1111122 
SCCF RECON,ioos:station:SCCF:11:1,2012-09-07T17:00:00Z,26.4679,-82.0631,1.76,5.57,1111122 
SCCF RECON,ioos:station:SCCF:11:1,2012-09-07T18:00:00Z,26.4679,-82.0631,1.79,5.96,1111122 
SCCF RECON,ioos:station:SCCF:11:1,2012-09-07T19:00:00Z,26.4679,-82.0631,1.869,6.52,1111122 
SCCF RECON,ioos:station:SCCF:11:1,2012-09-07T20:00:00Z,26.4679,-82.0631,1.94,6.6,1111122 
SCCF RECON,ioos:station:SCCF:11:1,2012-09-07T21:00:00Z,26.4679,-82.0631,1.99,7.07,1111122 
SCCF RECON,ioos:station:SCCF:11:1,2012-09-07T22:00:00Z,26.4679,-82.0631,2.03,6.93,1111122 
SCCF RECON,ioos:station:SCCF:11:1,2012-09-07T23:00:00Z,26.4679,-82.0631,2.06,7.19,1111122 
SCCF RECON,ioos:station:SCCF:11:1,2012-09-08T00:00:00Z,26.4679,-82.0631,2.09,6.05,1111122 
SCCF RECON,ioos:station:SCCF:11:1,2012-09-08T01:00:00Z,26.4679,-82.0631,2.09,6.12,1111122 
SCCF RECON,ioos:station:SCCF:11:1,2012-09-08T02:00:00Z,26.4679,-82.0631,2.08,5.26,1111122 
SCCF RECON,ioos:station:SCCF:11:1,2012-09-08T03:00:00Z,26.4679,-82.0631,2.06,4.82,1111122 
SCCF RECON,ioos:station:SCCF:11:1,2012-09-08T04:00:00Z,26.4679,-82.0631,2.05,6.13,1111122 
SCCF RECON,ioos:station:SCCF:11:1,2012-09-08T05:00:00Z,26.4679,-82.0631,2.04,6.26,1111122 
SCCF RECON,ioos:station:SCCF:11:1,2012-09-08T06:00:00Z,26.4679,-82.0631,2.07,5.69,1111122 
SCCF RECON,ioos:station:SCCF:11:1,2012-09-08T07:00:00Z,26.4679,-82.0631,2.13,5.76,1111122 
SCCF RECON,ioos:station:SCCF:11:1,2012-09-08T08:00:00Z,26.4679,-82.0631,2.21,5.52,1111122 
SCCF RECON,ioos:station:SCCF:11:1,2012-09-08T09:00:00Z,26.4679,-82.0631,2.28,5.6,1111122 
SCCF RECON,ioos:station:SCCF:11:1,2012-09-08T10:00:00Z,26.4679,-82.0631,2.32,4.28,1111122 
SCCF RECON,ioos:station:SCCF:11:1,2012-09-08T11:00:00Z,26.4679,-82.0631,2.324,3.97,1111122 
SCCF RECON,ioos:station:SCCF:11:1,2012-09-08T12:00:00Z,26.4679,-82.0631,2.27,4.61,1111122 
SCCF RECON,ioos:station:SCCF:11:1,2012-09-08T13:00:00Z,26.4679,-82.0631,2.19,5.16,1111122 
SCCF RECON,ioos:station:SCCF:11:1,2012-09-08T14:00:00Z,26.4679,-82.0631,2.059,5.2,1111122 
SCCF RECON,ioos:station:SCCF:11:1,2012-09-08T15:00:00Z,26.4679,-82.0631,1.98,5.35,1111122 
SCCF RECON,ioos:station:SCCF:11:1,2012-09-08T16:00:00Z,26.4679,-82.0631,1.894,5.51,1111122 
SCCF RECON,ioos:station:SCCF:11:1,2012-09-08T17:00:00Z,26.4679,-82.0631,1.83,5.78,1111122 
SCCF RECON,ioos:station:SCCF:11:1,2012-09-08T18:00:00Z,26.4679,-82.0631,1.789,6.0,1111122 
SCCF RECON,ioos:station:SCCF:11:1,2012-09-08T19:00:00Z,26.4679,-82.0631,1.792,5.97,1111122 
SCCF RECON,ioos:station:SCCF:11:1,2012-09-08T20:00:00Z,26.4679,-82.0631,1.84,6.57,1111122 
SCCF RECON,ioos:station:SCCF:11:1,2012-09-08T21:00:00Z,26.4679,-82.0631,1.94,6.44,1111122 
SCCF RECON,ioos:station:SCCF:11:1,2012-09-08T22:00:00Z,26.4679,-82.0631,2.017,6.68,1111122 
SCCF RECON,ioos:station:SCCF:11:1,2012-09-08T23:00:00Z,26.4679,-82.0631,2.05,6.49,1111122 
SCCF RECON,ioos:station:SCCF:11:1,2012-09-09T00:00:00Z,26.4679,-82.0631,2.07,6.4,1111122 
SCCF RECON,ioos:station:SCCF:11:1,2012-09-09T01:00:00Z,26.4679,-82.0631,2.09,6.44,1111122 
SCCF RECON,ioos:station:SCCF:11:1,2012-09-09T02:00:00Z,26.4679,-82.0631,2.11,5.47,1111122 
SCCF RECON,ioos:station:SCCF:11:1,2012-09-09T03:00:00Z,26.4679,-82.0631,2.1,4.94,1111122 
SCCF RECON,ioos:station:SCCF:11:1,2012-09-09T04:00:00Z,26.4679,-82.0631,2.1,5.03,1111122 
SCCF RECON,ioos:station:SCCF:11:1,2012-09-09T05:00:00Z,26.4679,-82.0631,2.11,4.98,1111122 
SCCF RECON,ioos:station:SCCF:11:1,2012-09-09T06:00:00Z,26.4679,-82.0631,2.13,4.68,1111122 
SCCF RECON,ioos:station:SCCF:11:1,2012-09-09T07:00:00Z,26.4679,-82.0631,2.171,5.05,1111122 
SCCF RECON,ioos:station:SCCF:11:1,2012-09-09T08:00:00Z,26.4679,-82.0631,2.21,5.09,1111122 
SCCF RECON,ioos:station:SCCF:11:1,2012-09-09T09:00:00Z,26.4679,-82.0631,2.25,5.34,1111122 
SCCF RECON,ioos:station:SCCF:11:1,2012-09-09T10:00:00Z,26.4679,-82.0631,2.3,4.34,1111122 
SCCF RECON,ioos:station:SCCF:11:1,2012-09-09T11:00:00Z,26.4679,-82.0631,2.314,4.04,1111122 
SCCF RECON,ioos:station:SCCF:11:1,2012-09-09T12:00:00Z,26.4679,-82.0631,2.3,4.54,1111122 
SCCF RECON,ioos:station:SCCF:11:1,2012-09-09T13:00:00Z,26.4679,-82.0631,2.28,4.47,1111122 
SCCF RECON,ioos:station:SCCF:11:1,2012-09-09T14:00:00Z,26.4679,-82.0631,2.211,5.14,1111122 
SCCF RECON,ioos:station:SCCF:11:1,2012-09-09T15:00:00Z,26.4679,-82.0631,2.143,5.26,1111122 
SCCF RECON,ioos:station:SCCF:11:1,2012-09-09T16:00:00Z,26.4679,-82.0631,2.047,5.39,1111122 
SCCF RECON,ioos:station:SCCF:11:1,2012-09-09T17:00:00Z,26.4679,-82.0631,1.952,5.71,1111122 
SCCF RECON,ioos:station:SCCF:11:1,2012-09-09T18:00:00Z,26.4679,-82.0631,1.85,5.92,1111122 
SCCF RECON,ioos:station:SCCF:11:1,2012-09-09T19:00:00Z,26.4679,-82.0631,1.763,6.14,1111122 
SCCF RECON,ioos:station:SCCF:11:1,2012-09-09T20:00:00Z,26.4679,-82.0631,1.787,6.29,1111122 
SCCF RECON,ioos:station:SCCF:11:1,2012-09-09T21:00:00Z,26.4679,-82.0631,1.83,6.13,1111122 
SCCF RECON,ioos:station:SCCF:11:1,2012-09-09T22:00:00Z,26.4679,-82.0631,1.901,6.52,1111122 
SCCF RECON,ioos:station:SCCF:11:1,2012-09-09T23:00:00Z,26.4679,-82.0631,1.996,6.12,1111122 
SCCF RECON,ioos:station:SCCF:11:1,2012-09-10T00:00:00Z,26.4679,-82.0631,2.065,5.86,1111122 
SCCF RECON,ioos:station:SCCF:11:1,2012-09-10T01:00:00Z,26.4679,-82.0631,2.099,5.51,1111122 
SCCF RECON,ioos:station:SCCF:11:1,2012-09-10T02:00:00Z,26.4679,-82.0631,2.104,5.72,1111122 
SCCF RECON,ioos:station:SCCF:11:1,2012-09-10T03:00:00Z,26.4679,-82.0631,2.069,5.66,1111122 
SCCF RECON,ioos:station:SCCF:11:1,2012-09-10T04:00:00Z,26.4679,-82.0631,2.048,5.64,1111122 
SCCF RECON,ioos:station:SCCF:11:1,2012-09-10T05:00:00Z,26.4679,-82.0631,2.089,5.14,1111122 
SCCF RECON,ioos:station:SCCF:11:1,2012-09-10T06:00:00Z,26.4679,-82.0631,2.11,5.04,1111122 
SCCF RECON,ioos:station:SCCF:11:1,2012-09-10T07:00:00Z,26.4679,-82.0631,2.1,5.16,1111122 
SCCF RECON,ioos:station:SCCF:11:1,2012-09-10T08:00:00Z,26.4679,-82.0631,2.079,5.18,1111122 
SCCF RECON,ioos:station:SCCF:11:1,2012-09-10T09:00:00Z,26.4679,-82.0631,2.11,4.98,1111122 
SCCF RECON,ioos:station:SCCF:11:1,2012-09-10T10:00:00Z,26.4679,-82.0631,2.132,4.77,1111122 
SCCF RECON,ioos:station:SCCF:11:1,2012-09-10T11:00:00Z,26.4679,-82.0631,2.18,4.88,1111122 
SCCF RECON,ioos:station:SCCF:11:1,2012-09-10T12:00:00Z,26.4679,-82.0631,2.248,4.65,1111122 
SCCF RECON,ioos:station:SCCF:11:1,2012-09-10T13:00:00Z,26.4679,-82.0631,2.273,4.71,1111122 
SCCF RECON,ioos:station:SCCF:11:1,2012-09-10T14:00:00Z,26.4679,-82.0631,2.27,4.91,1111122 
SCCF RECON,ioos:station:SCCF:11:1,2012-09-10T15:00:00Z,26.4679,-82.0631,2.19,4.8,1111122 
SCCF RECON,ioos:station:SCCF:11:1,2012-09-10T16:00:00Z,26.4679,-82.0631,2.099,5.16,1111122 
SCCF RECON,ioos:station:SCCF:11:1,2012-09-10T17:00:00Z,26.4679,-82.0631,1.97,5.27,1111122 
SCCF RECON,ioos:station:SCCF:11:1,2012-09-10T18:00:00Z,26.4679,-82.0631,1.858,5.43,1111122 
SCCF RECON,ioos:station:SCCF:11:1,2012-09-10T19:00:00Z,26.4679,-82.0631,1.77,5.76,1111122 
SCCF RECON,ioos:station:SCCF:11:1,2012-09-10T20:00:00Z,26.4679,-82.0631,1.719,5.09,1111122 
SCCF RECON,ioos:station:SCCF:11:1,2012-09-10T21:00:00Z,26.4679,-82.0631,1.703,6.51,1111122 
SCCF RECON,ioos:station:SCCF:11:1,2012-09-10T22:00:00Z,26.4679,-82.0631,1.77,6.65,1111122 
SCCF RECON,ioos:station:SCCF:11:1,2012-09-10T23:00:00Z,26.4679,-82.0631,1.861,6.51,1111122 
SCCF RECON,ioos:station:SCCF:11:1,2012-09-11T00:00:00Z,26.4679,-82.0631,1.955,5.56,1111122 
SCCF RECON,ioos:station:SCCF:11:1,2012-09-11T01:00:00Z,26.4679,-82.0631,2.03,5.31,1111122 
SCCF RECON,ioos:station:SCCF:11:1,2012-09-11T02:00:00Z,26.4679,-82.0631,2.09,5.46,1111122 
SCCF RECON,ioos:station:SCCF:11:1,2012-09-11T03:00:00Z,26.4679,-82.0631,2.13,5.38,1111122 
SCCF RECON,ioos:station:SCCF:11:1,2012-09-11T04:00:00Z,26.4679,-82.0631,2.149,4.91,1111122 
SCCF RECON,ioos:station:SCCF:11:1,2012-09-11T05:00:00Z,26.4679,-82.0631,2.16,5.02,1111122 
SCCF RECON,ioos:station:SCCF:11:1,2012-09-11T06:00:00Z,26.4679,-82.0631,2.12,5.19,1111122 
SCCF RECON,ioos:station:SCCF:11:1,2012-09-11T07:00:00Z,26.4679,-82.0631,2.06,5.2,1111122 
SCCF RECON,ioos:station:SCCF:11:1,2012-09-11T08:00:00Z,26.4679,-82.0631,2.02,5.22,1111122 
SCCF RECON,ioos:station:SCCF:11:1,2012-09-11T09:00:00Z,26.4679,-82.0631,2.05,4.89,1111122 
SCCF RECON,ioos:station:SCCF:11:1,2012-09-11T10:00:00Z,26.4679,-82.0631,2.11,4.64,1111122 
SCCF RECON,ioos:station:SCCF:11:1,2012-09-11T11:00:00Z,26.4679,-82.0631,2.15,4.5,1111122 
SCCF RECON,ioos:station:SCCF:11:1,2012-09-11T12:00:00Z,26.4679,-82.0631,2.22,4.24,1111122 
SCCF RECON,ioos:station:SCCF:11:1,2012-09-11T13:00:00Z,26.4679,-82.0631,2.29,3.69,1111122 
SCCF RECON,ioos:station:SCCF:11:1,2012-09-11T14:00:00Z,26.4679,-82.0631,2.32,3.75,1111122 
SCCF RECON,ioos:station:SCCF:11:1,2012-09-11T15:00:00Z,26.4679,-82.0631,2.3,3.9,1111122 
SCCF RECON,ioos:station:SCCF:11:1,2012-09-11T16:00:00Z,26.4679,-82.0631,2.219,4.61,1111122 
SCCF RECON,ioos:station:SCCF:11:1,2012-09-11T17:00:00Z,26.4679,-82.0631,2.089,5.72,1111122 
SCCF RECON,ioos:station:SCCF:11:1,2012-09-11T18:00:00Z,26.4679,-82.0631,1.95,6.17,1111122 
SCCF RECON,ioos:station:SCCF:11:1,2012-09-11T19:00:00Z,26.4679,-82.0631,1.811,6.52,1111122 
SCCF RECON,ioos:station:SCCF:11:1,2012-09-11T20:00:00Z,26.4679,-82.0631,1.729,6.98,1111122 